User: anonymous   Login
Location: Unspecified
(0.0000°N, 0.0000°E)
Time: 09:57:30
(UTC+00:00)
Language:

Resurs 1-3 - Orbit

View from above orbital plane
View from above orbital plane
View from above satellite
View from above satellite

Ground track
Ground track

The orbit data is extracted from the following two-line orbital elements,

1 23342U 94074A   21016.74861819  .00000053  00000-0  14030-4 0  9992
2 23342  97.9011  68.4144 0002198  77.9359 282.2099 14.79375245411128
Epoch (UTC): 16 January 2021 17:58:00
Eccentricity: 0.0002198
inclination: 97.9011°
perigee height: 630 km
apogee height: 633 km
right ascension of ascending node: 68.4144°
argument of perigee: 77.9359°
revolutions per day: 14.79375245
mean anomaly at epoch: 282.2099°
orbit number at epoch: 41112

The dashed part of the orbit path shows where the satellite is in the earth's shadow,  

DLR